Alice Town, Bahamas

3:14 PM EDT on September 03, 2015 (GMT -0400)
IBIMINIA2 | | Change Station
CLOSE
Current Station
Personal Weather Station
Location: Alice Town, BIMINI
Elevation: 0 ft
Nearby Weather Stations

Elev 0 ft 25.73 °N, 79.30 °W | Updated 6 minutes ago

Mostly Cloudy
Mostly Cloudy
90.8 °F
Feels Like 104 °F
N
0.0
Wind Variable Wind from West

Today
High -- | Low -- °F
--% Chance of Precip.
Yesterday
High -- | Low -- °F
Precip. -- in
6:58 AM 7:34 PM
Waning Gibbous, 67% visible
Pressure 29.94 in
Visibility 10.0 miles
Clouds Few 3500 ft
Mostly Cloudy 25000 ft
Heat Index 104 °F
Dew Point 76 °F
Humidity 63%
Rainfall 0.00 in
Snow Depth Not available.
UV 7 out of 12
Pollen Not available.
Air Quality Not available.
Flu Activity Not available.
METAR KFLL 031853Z 13011KT 10SM FEW035 BKN250 32/24 A2994 RMK AO2 SLP137 T03170244
Pressure 29.94 in
Visibility 10.0 miles
Clouds Few 3500 ft
Mostly Cloudy 25000 ft
Heat Index 104 °F
Dew Point 76 °F
Humidity 63%
Rainfall 0.00 in
Snow Depth Not available.
UV 7 out of 12
Pollen Not available.
Air Quality Not available.
Flu Activity Not available.
METAR KFLL 031853Z 13011KT 10SM FEW035 BKN250 32/24 A2994 RMK AO2 SLP137 T03170244

10-Day Weather Forecast

×

Almanac

Astronomy

Sep. 03, 2015 Rise Set
Actual Time
Civil Twilight
Nautical Twilight
Astronomical Twilight
Moon
Length of Visible Light
Length of Day
Tomorrow will be .
, % of the Moon is Illuminated

Today's Extremes

Country Highs Country Lows

Community

WunderPhotos

Upload Photos

1,852,014 photos uploaded!

WunderBlogs® & News

Nearby

Air Quality

  Air Quality AQ Index Pollutant
Not available.

Snow Depth

Station Depth Elevation

Earthquake Activity

City Distance Mag. Time & Date
Minimum magnitude displayed is 2.5.

Coastal Water Temperatures

Place Temperature

Stations

Nearby Weather Stations

Station Location Temp. Windchill Dew Point Humidity Wind Precip. Elev Updated Type